TimeEDT,TemperatureF,Dew PointF,Humidity,Sea Level PressureIn,VisibilityMPH,Wind Direction,Wind SpeedMPH,Gust SpeedMPH,PrecipitationIn,Events,Conditions,WindDirDegrees,DateUTC
12:12 AM,33.3,31.8,94,30.33,10.0,Calm,Calm,-,N/A,,Clear,0,2012-10-13 04:12:00
12:32 AM,32.9,31.3,94,30.32,10.0,ESE,4.6,-,N/A,,Clear,110,2012-10-13 04:32:00
12:53 AM,32.7,31.1,94,30.31,10.0,SSE,3.5,-,N/A,,Clear,150,2012-10-13 04:53:00
1:12 AM,32.0,30.4,94,30.31,10.0,Calm,Calm,-,N/A,,Clear,0,2012-10-13 05:12:00
1:53 AM,31.6,30.2,94,30.28,10.0,NNE,5.8,-,N/A,,Clear,20,2012-10-13 05:53:00
2:33 AM,30.7,29.3,94,30.28,10.0,North,3.5,-,N/A,,Clear,10,2012-10-13 06:33:00
2:53 AM,30.2,28.8,94,30.27,10.0,NNE,5.8,-,N/A,,Clear,20,2012-10-13 06:53:00
3:12 AM,30.6,29.1,94,30.26,10.0,SE,3.5,-,N/A,,Scattered Clouds,130,2012-10-13 07:12:00
3:33 AM,34.0,32.2,93,30.25,10.0,ESE,5.8,-,N/A,,Overcast,110,2012-10-13 07:33:00
3:53 AM,38.5,27.9,66,30.24,10.0,SE,5.8,-,N/A,,Mostly Cloudy,140,2012-10-13 07:53:00
4:12 AM,39.7,26.6,59,30.23,10.0,SE,5.8,-,N/A,,Scattered Clouds,130,2012-10-13 08:12:00
4:33 AM,39.6,26.8,60,30.24,10.0,SE,4.6,-,N/A,,Clear,140,2012-10-13 08:33:00
4:52 AM,39.9,27.0,60,30.23,10.0,NE,4.6,-,N/A,,Clear,50,2012-10-13 08:52:00
5:13 AM,41.0,27.3,58,30.23,10.0,ESE,4.6,-,N/A,,Clear,110,2012-10-13 09:13:00
5:32 AM,41.9,27.3,56,30.23,10.0,ENE,5.8,-,N/A,,Clear,70,2012-10-13 09:32:00
5:53 AM,41.9,27.5,57,30.23,10.0,East,6.9,-,N/A,,Clear,100,2012-10-13 09:53:00
6:12 AM,41.7,27.5,57,30.22,10.0,East,5.8,-,N/A,,Clear,90,2012-10-13 10:12:00
6:53 AM,41.9,28.4,59,30.20,10.0,ESE,4.6,-,N/A,,Scattered Clouds,110,2012-10-13 10:53:00
7:12 AM,42.3,28.4,58,30.19,10.0,NE,3.5,-,N/A,,Mostly Cloudy,50,2012-10-13 11:12:00
7:33 AM,42.8,28.4,57,30.19,10.0,ESE,5.8,-,N/A,,Overcast,120,2012-10-13 11:33:00
7:53 AM,42.8,28.6,57,30.19,10.0,SE,4.6,-,N/A,Rain,Light Rain,130,2012-10-13 11:53:00
8:13 AM,41.4,31.5,68,30.17,7.0,SE,6.9,-,N/A,Rain,Light Rain,130,2012-10-13 12:13:00
8:33 AM,40.6,33.1,74,30.18,10.0,ENE,5.8,-,N/A,Rain,Light Rain,70,2012-10-13 12:33:00
8:52 AM,41.0,32.4,71,30.17,10.0,ESE,8.1,-,N/A,,Overcast,120,2012-10-13 12:52:00
9:13 AM,41.4,33.1,72,30.16,10.0,SE,8.1,-,N/A,Rain,Light Rain,130,2012-10-13 13:13:00
9:52 AM,41.5,35.2,78,30.14,10.0,SE,9.2,18.4,N/A,Rain,Light Rain,140,2012-10-13 13:52:00
10:33 AM,41.9,37.2,83,30.10,10.0,SE,11.5,17.3,N/A,Rain,Light Rain,140,2012-10-13 14:33:00
10:52 AM,42.1,37.2,83,30.08,10.0,SE,10.4,18.4,N/A,,Overcast,140,2012-10-13 14:52:00
11:13 AM,41.9,37.2,83,30.07,10.0,ESE,6.9,-,N/A,Rain,Light Rain,120,2012-10-13 15:13:00
11:33 AM,41.9,37.8,85,30.05,7.0,SE,8.1,-,N/A,Rain,Heavy Rain,140,2012-10-13 15:33:00
11:53 AM,42.1,38.8,88,30.04,5.0,ESE,6.9,-,N/A,Rain,Light Rain,120,2012-10-13 15:53:00
12:13 PM,42.8,39.4,88,30.01,7.0,ESE,8.1,18.4,N/A,Rain,Light Rain,120,2012-10-13 16:13:00
12:33 PM,43.5,39.6,86,30.01,10.0,SSE,9.2,18.4,N/A,Rain,Rain,160,2012-10-13 16:33:00
12:53 PM,44.1,40.8,88,29.98,5.0,SSE,6.9,-,N/A,Rain,Light Rain,160,2012-10-13 16:53:00
1:13 PM,45.0,41.2,87,29.97,10.0,SSE,9.2,17.3,N/A,Rain,Rain,160,2012-10-13 17:13:00
1:32 PM,44.6,41.2,88,29.95,5.0,South,10.4,18.4,N/A,Rain,Rain,170,2012-10-13 17:32:00
1:53 PM,44.6,41.5,89,29.93,2.5,SSE,11.5,19.6,N/A,Rain,Light Rain,160,2012-10-13 17:53:00
2:13 PM,45.0,42.3,90,29.91,5.0,South,8.1,-,N/A,Rain,Light Rain,180,2012-10-13 18:13:00
2:32 PM,46.2,43.0,88,29.89,10.0,SSE,12.7,21.9,N/A,Rain,Light Rain,150,2012-10-13 18:32:00
2:53 PM,46.0,42.8,88,29.88,10.0,South,5.8,17.3,N/A,Rain,Rain,170,2012-10-13 18:53:00
3:13 PM,46.2,43.2,89,29.88,4.0,ESE,8.1,-,N/A,Rain,Light Rain,120,2012-10-13 19:13:00
3:33 PM,46.6,44.1,91,29.86,4.0,ESE,6.9,-,N/A,Rain,Light Rain,120,2012-10-13 19:33:00
3:53 PM,46.8,44.6,92,29.85,4.0,ESE,8.1,-,N/A,Rain,Light Rain,110,2012-10-13 19:53:00
4:13 PM,47.5,45.1,92,29.83,5.0,ESE,6.9,-,N/A,Rain,Light Rain,120,2012-10-13 20:13:00
4:33 PM,48.0,45.5,91,29.83,7.0,SE,10.4,16.1,N/A,Rain,Light Rain,130,2012-10-13 20:33:00
4:53 PM,48.2,45.9,92,29.82,5.0,SE,9.2,19.6,N/A,Rain,Rain,140,2012-10-13 20:53:00
5:13 PM,48.4,46.0,92,29.81,4.0,SE,12.7,19.6,N/A,Rain,Light Rain,140,2012-10-13 21:13:00
5:33 PM,48.6,46.4,92,29.81,4.0,South,9.2,18.4,N/A,Rain,Rain,170,2012-10-13 21:33:00
5:53 PM,48.7,46.4,92,29.81,5.0,SSE,8.1,18.4,N/A,Rain,Rain,150,2012-10-13 21:53:00
6:13 PM,48.7,46.4,92,29.81,7.0,SE,8.1,16.1,N/A,Rain,Rain,140,2012-10-13 22:13:00
6:53 PM,48.7,46.4,92,29.80,7.0,SE,5.8,-,N/A,Rain,Light Rain,140,2012-10-13 22:53:00
7:13 PM,48.9,46.8,92,29.79,7.0,ESE,8.1,-,N/A,Rain,Rain,120,2012-10-13 23:13:00
7:33 PM,49.1,46.9,92,29.78,5.0,ESE,5.8,-,N/A,Rain,Heavy Rain,120,2012-10-13 23:33:00
8:33 PM,49.5,47.7,94,29.77,4.0,East,5.8,-,N/A,Rain,Rain,100,2012-10-14 00:33:00
8:53 PM,49.6,47.8,94,29.78,4.0,ESE,5.8,-,N/A,Rain,Rain,120,2012-10-14 00:53:00
9:33 PM,50.0,48.2,94,29.77,3.0,East,4.6,-,N/A,Rain,Heavy Rain,100,2012-10-14 01:33:00
10:13 PM,49.6,48.2,95,29.78,2.0,NE,6.9,-,N/A,Rain,Light Rain,50,2012-10-14 02:13:00
10:33 PM,49.6,48.2,95,29.78,2.0,ENE,6.9,-,N/A,Rain,Rain,70,2012-10-14 02:33:00
10:53 PM,50.0,48.6,95,29.77,2.5,Calm,Calm,-,N/A,Rain,Light Rain,0,2012-10-14 02:53:00
11:13 PM,50.2,48.7,95,29.77,2.0,NNE,3.5,-,N/A,,Drizzle,30,2012-10-14 03:13:00